Tracking 30143 objects as of 26-Jan-2025
HD Live streaming from Space Station
objects crossing your sky now

STARLINK-5091

Track STARLINK-5091 now!
10-day predictions
STARLINK-5091 is classified as:


NORAD ID: 54873
Int'l Code: 2022-177BF
Perigee: 565.2 km
Apogee: 567.2 km
Inclination: 43.0 °
Period: 95.8 minutes
Semi major axis: 6937 km
RCS: Unknown
Launch date: December 28, 2022
Source: United States (US)
Launch site: AIR FORCE EASTERN TEST RANGE (AFETR)
Your satellite tracking list
Your tracking list is empty




NASA's NSSDC Master Catalog

Two Line Element Set (TLE):
1 54873U 22177BF  25025.73849496  .00000730  00000-0  69118-4 0  9999
2 54873  43.0028 176.5953 0001453 265.9337  94.1339 15.02533726115741
Source of the keplerian elements: AFSPC